Regional Weather Roundup
Issued by NWS

Home | Current Version | Previous Version | Graphics & Text | Print | Product List | Glossary On
Versions: 1 2 3 4 5 6 7 8 9 10 11 12 13 14 15 16 17 18 19 20 21 22 23 24 25 26 27 28 29 30 31 32 33 34 35 36 37 38 39 40 41 42 43 44 45 46 47 48 49 50
000
ASUS43 KLOT 261604
RWRIL

ILLINOIS REGIONAL WEATHER ROUNDUP
NATIONAL WEATHER SERVICE CHICAGO/ROMEOVILLE IL
1100 AM CDT FRI MAY 26 2017

NOTE: "FAIR" INDICATES FEW OR NO CLOUDS BELOW 12,000 FEET WITH NO
SIGNIFICANT WEATHER AND/OR OBSTRUCTIONS TO VISIBILITY.

* THESE STATIONS ARE NOT UNDER NWS QUALITY CONTROL. THEY ALSO MAY NOT
  REPORT WEATHER SUCH AS PRECIPITATION OR FOG.

ILZ001-002-007-009-015-016-024-261700-
NORTHWEST ILLINOIS

CITY           SKY/WX    TMP DP  RH WIND       PRES   REMARKS
MOLINE         CLOUDY    71  54  54 SE12      29.74R
STERLING*      CLOUDY    69  58  67 E14       29.76F
SAVANNA*       LGT RAIN  67  57  69 E8        29.76F
$$

ILZ003-004-008-010-011-017-018-261700-
NORTH CENTRAL ILLINOIS

CITY           SKY/WX    TMP DP  RH WIND       PRES   REMARKS
ROCKFORD       CLOUDY    68  57  68 SE14      29.81F
FREEPORT*      CLOUDY    66  56  70 E10       29.80F
ROCHELLE*      MOSUNNY   68  58  70 E17       29.79F
DE KALB*       CLOUDY    68  59  72 SE14G20   29.81F
PERU*          CLOUDY    70  55  59 SE10G21   29.77R
$$

ILZ005-006-012>014-019>023-261700-
NORTHEAST ILLINOIS

CITY           SKY/WX    TMP DP  RH WIND       PRES   REMARKS
CHICAGO-OHARE  CLOUDY    69  54  58 E14       29.82F
CHICAGO-MIDWAY CLOUDY    67  55  65 E12       29.83F
AURORA         CLOUDY    69  58  67 SE15G21   29.80F
LANSING*       CLOUDY    68  60  74 E10       29.84F
JOLIET*        CLOUDY    71  59  67 E12G17    29.81F
WAUKEGAN       MOSUNNY   61  54  77 E10       29.85F
DUPAGE AIRPORT MOSUNNY   67  58  72 SE12      29.80F
KANKAKEE*      CLOUDY    71  57  61 E16       29.79F
WHEELING       CLOUDY    65  55  70 E10       29.85F
MORRIS*        CLOUDY    71  58  62 E12       29.78F
ROMEOVILLE*    MOSUNNY   69  61  75 E10G17    29.81F
NORTHERLY ISL    N/A     56  52  86 NE6         N/A
$$

LMZ740>746-261700-
SOUTHERN LAKE MICHIGAN

STATION/POSITION SKY/WX   TEMP    WIND        PRES    VSBY  WAVE
                          AIR SEA DIR/SP/G                  HT/PER
                          (F)     (DEG/KT/KT) (MB)    (MI)  (FT/S)
SOUTHERN BUOY              46 46  180/  2/  6 1012.3          1/ 4
WILMETTE HARBOR            50 52                N/A           1/ 4
HARRISON CRIB              54     110/  9/ 10   N/A
BURNHAM HARBOR             56      50/  5/  7   N/A
CALUMET HARBOR             56      70/  7/  8 1011.3F
BURNS HARBOR               59      60/  7/  7 1012.5F
MICHIGAN CITY              62     360/  3/  4   N/A
MICHIGAN CITY 6N           56 54   40/  2/  4   N/A           1/ 5
ST. JOSEPH                 53 55  240/  6/  8 1012.8S         1/ 5
$$

ILZ025>027-034>036-040-047-049-050-058-095>099-261700-
WEST-CENTRAL ILLINOIS

CITY           SKY/WX    TMP DP  RH WIND       PRES   REMARKS
QUINCY         PTSUNNY   74  64  71 S10       29.73S
GALESBURG*     CLOUDY    68  58  72 S9        29.76R
MACOMB*        MOSUNNY   68  60  75 SW6       29.77S
JACKSONVILLE*  PTSUNNY   70  62  75 SW9       29.77R
PITTSFIELD*    SUNNY     72  65  77 SW10      29.78S
$$

ILZ028>032-037-038-041>044-048-051>054-059>061-261700-
CENTRAL ILLINOIS

CITY           SKY/WX    TMP DP  RH WIND       PRES   REMARKS
PONTIAC        MOSUNNY   72  59  64 E15       29.79R
BLOOMINGTON    CLOUDY    69  59  70 SE18      29.77R
DECATUR        CLOUDY    72  61  68 SE18      29.75F
PEORIA         CLOUDY    72  59  63 SE14G20   29.75R
LACON*         CLOUDY    70  57  64 E12       29.73S
LINCOLN*       PTSUNNY   74  62  66 SE13G18   29.74R
SPRINGFIELD    SUNNY     74  64  71 SW13      29.78R
TAYLORVILLE    SUNNY     73  63  71 S15G23    29.75S
$$

ILZ033-039-045-046-055>057-062-063-261700-
EAST-CENTRAL ILLINOIS

CITY           SKY/WX    TMP DP  RH WIND       PRES   REMARKS
CHAMPAIGN      CLOUDY    70  60  70 SE17      29.77F
RANTOUL*       CLOUDY    71  61  71 SE16      29.77F
MATTOON        CLOUDY    73  63  70 SE14G21   29.78F
$$

ILZ079-100>102-261700-
SOUTHWEST ILLINOIS

CITY           SKY/WX    TMP DP  RH WIND       PRES   REMARKS
ALTON          MOSUNNY   73  63  68 S14       29.75S
BELLEVILLE     CLOUDY    75  64  67 S14G20    29.76F
CAHOKIA*       SUNNY     78  62  57 S13       29.75R HX  80
SPARTA*        MOSUNNY   73  62  69 S10G16    29.80R
$$

ILZ064>066-069>071-074>076-080>082-084>086-088>090-092>094-261700-
SOUTH-CENTRAL ILLINOIS

CITY           SKY/WX    TMP DP  RH WIND       PRES   REMARKS
CARBONDALE     MOSUNNY   73  62  68 S18G24    29.80R
CAIRO*         PTSUNNY   76  61  57 S16G24    29.81F
EFFINGHAM*     CLOUDY    73  63  72 SE16G23   29.78F
MARION         PTSUNNY   75  63  64 S12       29.84F
MT. VERNON       N/A     74  62  66 E8        29.77F
CENTRALIA*     MOSUNNY   75  64  69 SE9       29.76F
SALEM*         SUNNY     76  62  61 SE10G16   29.77F
$$

ILZ067-068-072-073-078-083-087-091-261700-
SOUTHEAST ILLINOIS

CITY           SKY/WX    TMP DP  RH WIND       PRES   REMARKS
LAWRENCEVILLE  CLOUDY    74  62  66 SE8       29.87F
FLORA*         CLOUDY    76  62  62 S14       29.82F
FAIRFIELD*     MOSUNNY   74  61  63 S6        29.82F
HARRISBURG*    MOSUNNY   76  61  60 S12       29.83F
ROBINSON*      CLOUDY    72  62  69 SE7       29.87S
CARMI*         MOSUNNY   75  63  66 SE13      29.82F
$$

ABBREVIATIONS USED IN REMARKS
   TC - TEMPERATURE IN CELSIUS
  WCI - WIND CHILL INDEX
   HX - HEAT INDEX
  VSB - VISIBILITY
$$





USA.gov is the U.S. government's official web portal to all federal, state and local government web resources and services.